| time (UTC) | temp C | wind direction | speed KPH | gust KPH | rain 1hr cm | rain 24hr cm | rain mn cm | humidity % | barometer mb |
| 20260504140855 | 8 | 238 | 4.8 | 14.5 | 0.00 | 0.00 | 0.00 | 75 | 1007.7 |
| 20260504140348 | 9 | 175 | 4.8 | 16.1 | 0.00 | 0.00 | 0.00 | 72 | 1007.7 |
| 20260504130753 | 9 | 193 | 8.0 | 19.3 | 0.00 | 0.00 | 0.00 | 67 | 1006.8 |
| 20260504130252 | 9 | 277 | 9.7 | 24.1 | 0.00 | 0.00 | 0.00 | 66 | 1006.8 |
| 20260504120250 | 9 | 191 | 4.8 | 16.1 | 0.00 | 0.00 | 0.00 | 74 | 1006.8 |
| 20260504110232 | 8 | 212 | 4.8 | 14.5 | 0.00 | 0.00 | 0.00 | 80 | 1007.2 |
| 20260504100228 | 7 | 197 | 4.8 | 11.3 | 0.00 | 0.00 | 0.00 | 85 | 1007.5 |
| 20260504081906 | 7 | 184 | 3.2 | 9.7 | 0.00 | 0.00 | 0.00 | 75 | 1007.9 |
| 20260504081139 | 7 | 179 | 4.8 | 12.9 | 0.00 | 0.00 | 0.00 | 74 | 1008.0 |
| 20260504080632 | 7 | 186 | 4.8 | 16.1 | 0.00 | 0.00 | 0.00 | 74 | 1007.9 |
| 20260504080126 | 7 | 214 | 3.2 | 16.1 | 0.00 | 0.00 | 0.00 | 74 | 1008.0 |
| 20260504070121 | 6 | 224 | 3.2 | 9.7 | 0.00 | 0.00 | 0.00 | 70 | 1008.1 |
| 20260504050459 | 5 | 246 | 0.0 | 0.0 | 0.00 | 0.00 | 0.00 | 67 | 1008.3 |
| 20260504045959 | 5 | 246 | 0.0 | 0.0 | 0.00 | 0.00 | 0.00 | 69 | 1008.5 |
| 20260504045456 | 4 | 246 | 0.0 | 1.6 | 0.00 | 0.00 | 0.00 | 68 | 1008.5 |
| 20260504045222 | 4 | 238 | 0.0 | 1.6 | 0.00 | 0.00 | 0.00 | 68 | 1008.5 |
| 20260504044458 | 3 | 274 | 0.0 | 0.0 | 0.00 | 0.00 | 0.00 | 73 | 1008.6 |
| 20260504043953 | 3 | 180 | 0.0 | 0.0 | 0.00 | 0.00 | 0.00 | 78 | 1008.6 |
| 20260504043451 | 3 | 4 | 0.0 | 0.0 | 0.00 | 0.00 | 0.00 | 80 | 1008.6 |
| 20260504042949 | 2 | 4 | 0.0 | 0.0 | 0.00 | 0.00 | 0.00 | 81 | 1008.7 |
| 20260504042449 | 2 | 4 | 0.0 | 0.0 | 0.00 | 0.00 | 0.00 | 82 | 1008.7 |
| 20260504041947 | 2 | 4 | 0.0 | 0.0 | 0.00 | 0.00 | 0.00 | 83 | 1008.8 |
| 20260504041445 | 2 | 4 | 0.0 | 3.2 | 0.00 | 0.00 | 0.00 | 83 | 1008.7 |
| 20260504040948 | 2 | 4 | 0.0 | 3.2 | 0.00 | 0.00 | 0.00 | 83 | 1008.7 |
| 20260504040445 | 2 | 29 | 0.0 | 1.6 | 0.00 | 0.00 | 0.00 | 82 | 1008.7 |
| 20260504035946 | 2 | 31 | 0.0 | 0.0 | 0.00 | 0.00 | 0.00 | 83 | 1008.8 |
| 20260504035440 | 2 | 20 | 0.0 | 0.0 | 0.00 | 0.00 | 0.00 | 83 | 1008.7 |
| 20260504034934 | 2 | 20 | 0.0 | 1.6 | 0.00 | 0.00 | 0.00 | 83 | 1008.8 |
| 20260504034428 | 2 | 7 | 0.0 | 1.6 | 0.00 | 0.00 | 0.00 | 84 | 1008.8 |
| 20260504033921 | 2 | 14 | 0.0 | 3.2 | 0.00 | 0.00 | 0.00 | 84 | 1008.9 |
| 20260504033639 | 1 | 11 | 0.0 | 3.2 | 0.00 | 0.00 | 0.00 | 84 | 1008.9 |
| 20260504032913 | 1 | 20 | 0.0 | 1.6 | 0.00 | 0.03 | 0.00 | 83 | 1008.8 |
| 20260504032412 | 1 | 20 | 0.0 | 0.0 | 0.00 | 0.03 | 0.00 | 83 | 1008.9 |
| 20260504031912 | 1 | 20 | 0.0 | 1.6 | 0.00 | 0.03 | 0.00 | 83 | 1008.8 |
| 20260504031411 | 2 | 20 | 0.0 | 4.8 | 0.00 | 0.03 | 0.00 | 83 | 1009.0 |
| 20260504030910 | 2 | 12 | 0.0 | 4.8 | 0.00 | 0.03 | 0.00 | 82 | 1008.9 |
| 20260504030409 | 2 | 23 | 0.0 | 0.0 | 0.00 | 0.03 | 0.00 | 83 | 1008.9 |
| 20260504025908 | 2 | 27 | 0.0 | 0.0 | 0.00 | 0.03 | 0.00 | 83 | 1008.9 |
| 20260504025406 | 2 | 8 | 0.0 | 0.0 | 0.00 | 0.03 | 0.00 | 82 | 1009.0 |
| 20260504024907 | 2 | 24 | 0.0 | 0.0 | 0.00 | 0.03 | 0.00 | 80 | 1009.1 |
| 20260504024404 | 2 | 24 | 0.0 | 0.0 | 0.00 | 0.03 | 0.00 | 81 | 1009.1 |
| 20260504024349 | 2 | 24 | 0.0 | 0.0 | 0.00 | 0.03 | 0.00 | 81 | 1009.1 |
| 20260504023635 | 2 | 24 | 0.0 | 0.0 | 0.00 | 0.05 | 0.00 | 81 | 1009.2 |
| 20260504022900 | 2 | 24 | 0.0 | 0.0 | 0.00 | 0.05 | 0.00 | 80 | 1009.2 |
| 20260504022400 | 2 | 24 | 0.0 | 3.2 | 0.00 | 0.05 | 0.00 | 81 | 1009.2 |
| 20260504021900 | 3 | 27 | 0.0 | 3.2 | 0.00 | 0.05 | 0.00 | 80 | 1009.2 |
| 20260504021621 | 3 | 7 | 0.0 | 0.0 | 0.00 | 0.05 | 0.00 | 76 | 1009.2 |
| 20260504020858 | 3 | 210 | 0.0 | 0.0 | 0.00 | 0.05 | 0.00 | 73 | 1009.3 |
| 20260504020400 | 3 | 210 | 0.0 | 0.0 | 0.00 | 0.05 | 0.00 | 75 | 1009.3 |
| 20260504015857 | 3 | 210 | 0.0 | 0.0 | 0.00 | 0.05 | 0.00 | 76 | 1009.3 |
| 20260504015355 | 3 | 210 | 0.0 | 0.0 | 0.00 | 0.05 | 0.00 | 76 | 1009.3 |
| 20260504014858 | 3 | 210 | 0.0 | 0.0 | 0.00 | 0.05 | 0.00 | 76 | 1009.2 |
| 20260504014621 | 3 | 210 | 0.0 | 0.0 | 0.00 | 0.05 | 0.00 | 75 | 1009.3 |
| 20260504013900 | 3 | 210 | 0.0 | 0.0 | 0.00 | 0.05 | 0.00 | 72 | 1009.3 |
| 20260504013400 | 3 | 210 | 0.0 | 0.0 | 0.00 | 0.05 | 0.00 | 70 | 1009.3 |
| 20260504012854 | 3 | 210 | 0.0 | 0.0 | 0.00 | 0.05 | 0.00 | 68 | 1009.3 |
| 20260504012355 | 4 | 210 | 0.0 | 0.0 | 0.00 | 0.05 | 0.00 | 67 | 1009.3 |
| 20260504011901 | 4 | 210 | 0.0 | 0.0 | 0.00 | 0.05 | 0.00 | 66 | 1009.1 |
| 20260504011856 | 4 | 210 | 0.0 | 0.0 | 0.00 | 0.05 | 0.00 | 67 | 1009.2 |
| 20260504011112 | 4 | 210 | 0.0 | 0.0 | 0.00 | 0.05 | 0.00 | 67 | 1009.0 |
| 20260504010350 | 4 | 210 | 0.0 | 0.0 | 0.00 | 0.05 | 0.00 | 67 | 1009.1 |
| 20260504005848 | 4 | 210 | 0.0 | 0.0 | 0.00 | 0.05 | 0.00 | 67 | 1009.0 |
| 20260504005347 | 4 | 210 | 0.0 | 0.0 | 0.00 | 0.05 | 0.00 | 67 | 1008.8 |
| 20260504004846 | 5 | 210 | 0.0 | 0.0 | 0.00 | 0.05 | 0.00 | 67 | 1008.9 |
| 20260504004343 | 5 | 210 | 0.0 | 0.0 | 0.00 | 0.08 | 0.00 | 67 | 1008.8 |
| 20260504004111 | 5 | 210 | 0.0 | 0.0 | 0.00 | 0.08 | 0.00 | 67 | 1008.8 |
| 20260504003339 | 5 | 210 | 0.0 | 0.0 | 0.00 | 0.08 | 0.00 | 67 | 1008.8 |
| 20260504002830 | 5 | 210 | 0.0 | 0.0 | 0.00 | 0.08 | 0.00 | 67 | 1008.9 |
| 20260504002325 | 5 | 210 | 0.0 | 0.0 | 0.00 | 0.08 | 0.00 | 65 | 1008.7 |
| 20260504001820 | 6 | 210 | 0.0 | 0.0 | 0.00 | 0.08 | 0.00 | 63 | 1008.8 |
| 20260504001314 | 6 | 210 | 0.0 | 0.0 | 0.00 | 0.08 | 0.00 | 62 | 1008.8 |
| 20260504000811 | 6 | 210 | 0.0 | 0.0 | 0.00 | 0.08 | 0.00 | 62 | 1008.8 |
| 20260504000312 | 7 | 210 | 0.0 | 0.0 | 0.00 | 0.08 | 0.00 | 61 | 1008.7 |
| 20260503235811 | 7 | 210 | 0.0 | 0.0 | 0.00 | 0.08 | 0.00 | 59 | 1008.7 |
| 20260503235532 | 8 | 210 | 0.0 | 0.0 | 0.00 | 0.10 | 0.00 | 57 | 1008.8 |
| 20260503234812 | 8 | 210 | 0.0 | 0.0 | 0.00 | 0.10 | 0.00 | 54 | 1008.7 |
| 20260503234312 | 8 | 210 | 0.0 | 0.0 | 0.00 | 0.10 | 0.00 | 53 | 1008.7 |
| 20260503233812 | 8 | 210 | 0.0 | 0.0 | 0.00 | 0.10 | 0.00 | 52 | 1008.5 |
| 20260503233313 | 8 | 210 | 0.0 | 0.0 | 0.00 | 0.10 | 0.00 | 52 | 1008.5 |
| 20260503233029 | 8 | 210 | 0.0 | 0.0 | 0.00 | 0.10 | 0.00 | 52 | 1008.5 |
| 20260503232743 | 8 | 210 | 0.0 | 0.0 | 0.00 | 0.10 | 0.00 | 52 | 1008.5 |
| 20260503231809 | 8 | 210 | 0.0 | 0.0 | 0.00 | 0.10 | 0.00 | 54 | 1008.5 |
| 20260503231309 | 8 | 210 | 0.0 | 0.0 | 0.00 | 0.10 | 0.00 | 51 | 1008.5 |
| 20260503230809 | 8 | 210 | 0.0 | 0.0 | 0.00 | 0.10 | 0.00 | 51 | 1008.5 |
| 20260503230310 | 8 | 259 | 0.0 | 0.0 | 0.00 | 0.10 | 0.00 | 50 | 1008.5 |
| 20260503230033 | 8 | 259 | 0.0 | 0.0 | 0.00 | 0.10 | 0.00 | 51 | 1008.5 |
| 20260503225309 | 8 | 259 | 0.0 | 0.0 | 0.00 | 0.10 | 0.00 | 52 | 1008.6 |
| 20260503225035 | 8 | 259 | 0.0 | 0.0 | 0.00 | 0.10 | 0.00 | 50 | 1008.6 |
| 20260503224303 | 9 | 280 | 0.0 | 0.0 | 0.00 | 0.10 | 0.00 | 48 | 1008.5 |
| 20260503223758 | 9 | 285 | 0.0 | 0.0 | 0.00 | 0.10 | 0.00 | 50 | 1008.5 |
| 20260503223252 | 9 | 285 | 0.0 | 0.0 | 0.00 | 0.13 | 0.00 | 48 | 1008.5 |
| 20260503222751 | 9 | 285 | 0.0 | 0.0 | 0.00 | 0.13 | 0.00 | 48 | 1008.5 |
| 20260503222249 | 8 | 285 | 0.0 | 0.0 | 0.00 | 0.13 | 0.00 | 47 | 1008.5 |
| 20260503221749 | 9 | 285 | 0.0 | 1.6 | 0.00 | 0.13 | 0.00 | 47 | 1008.6 |
| 20260503221250 | 9 | 346 | 0.0 | 1.6 | 0.00 | 0.13 | 0.00 | 47 | 1008.5 |
| 20260503220747 | 9 | 306 | 0.0 | 4.8 | 0.00 | 0.13 | 0.00 | 46 | 1008.6 |
| 20260503220508 | 9 | 31 | 0.0 | 8.0 | 0.00 | 0.13 | 0.00 | 47 | 1008.6 |
| 20260503215746 | 9 | 297 | 0.0 | 8.0 | 0.00 | 0.13 | 0.00 | 46 | 1008.5 |
| 20260503215245 | 9 | 274 | 0.0 | 6.4 | 0.00 | 0.13 | 0.00 | 45 | 1008.4 |
| 20260503214744 | 9 | 328 | 0.0 | 6.4 | 0.00 | 0.13 | 0.00 | 45 | 1008.5 |
| 20260503214242 | 9 | 311 | 0.0 | 3.2 | 0.00 | 0.13 | 0.00 | 45 | 1008.5 |
| 20260503213742 | 9 | 293 | 1.6 | 9.7 | 0.00 | 0.13 | 0.00 | 47 | 1008.5 |
| 20260503213242 | 9 | 2 | 3.2 | 9.7 | 0.00 | 0.13 | 0.00 | 47 | 1008.5 |
| 20260503212740 | 9 | 21 | 1.6 | 11.3 | 0.00 | 0.13 | 0.00 | 46 | 1008.4 |
| 20260503212237 | 9 | 35 | 3.2 | 12.9 | 0.00 | 0.13 | 0.00 | 46 | 1008.4 |
| 20260503212218 | 9 | 337 | 1.6 | 12.9 | 0.00 | 0.13 | 0.00 | 46 | 1008.5 |
| 20260503211238 | 9 | 297 | 1.6 | 12.9 | 0.00 | 0.13 | 0.00 | 48 | 1008.5 |
| 20260503210737 | 9 | 20 | 1.6 | 12.9 | 0.00 | 0.13 | 0.00 | 46 | 1008.5 |
| 20260503210236 | 9 | 66 | 1.6 | 9.7 | 0.00 | 0.13 | 0.00 | 50 | 1008.4 |
| 20260503210221 | 9 | 41 | 1.6 | 9.7 | 0.00 | 0.13 | 0.00 | 47 | 1008.5 |
| 20260503205238 | 9 | 332 | 1.6 | 6.4 | 0.00 | 0.13 | 0.00 | 47 | 1008.5 |
| 20260503204737 | 8 | 304 | 1.6 | 11.3 | 0.00 | 0.13 | 0.00 | 48 | 1008.5 |
| 20260503204714 | 8 | 309 | 1.6 | 11.3 | 0.00 | 0.13 | 0.00 | 49 | 1008.5 |
| 20260503204000 | 8 | 18 | 1.6 | 11.3 | 0.00 | 0.13 | 0.00 | 49 | 1008.6 |
| 20260503203724 | 8 | 320 | 3.2 | 16.1 | 0.00 | 0.13 | 0.00 | 48 | 1008.5 |
| 20260503202955 | 8 | 55 | 3.2 | 16.1 | 0.00 | 0.13 | 0.00 | 50 | 1008.5 |
| 20260503202231 | 9 | 285 | 4.8 | 11.3 | 0.00 | 0.13 | 0.00 | 47 | 1008.6 |
| 20260503201729 | 9 | 309 | 4.8 | 16.1 | 0.00 | 0.13 | 0.00 | 46 | 1008.5 |
| 20260503201227 | 9 | 30 | 3.2 | 14.5 | 0.00 | 0.13 | 0.00 | 48 | 1008.5 |
| 20260503200727 | 8 | 351 | 1.6 | 12.9 | 0.00 | 0.13 | 0.00 | 50 | 1008.6 |
| 20260503200227 | 8 | 342 | 1.6 | 11.3 | 0.00 | 0.13 | 0.00 | 51 | 1008.7 |
| 20260503195729 | 8 | 283 | 3.2 | 14.5 | 0.00 | 0.13 | 0.00 | 49 | 1008.8 |
| 20260503195226 | 8 | 53 | 1.6 | 14.5 | 0.00 | 0.13 | 0.00 | 50 | 1008.8 |
| 20260503194727 | 8 | 330 | 3.2 | 11.3 | 0.00 | 0.13 | 0.00 | 51 | 1008.9 |
| 20260503194227 | 8 | 285 | 3.2 | 17.7 | 0.00 | 0.13 | 0.00 | 51 | 1009.0 |
| 20260503193724 | 8 | 262 | 4.8 | 17.7 | 0.00 | 0.13 | 0.00 | 50 | 1009.0 |
| 20260503193225 | 8 | 324 | 4.8 | 17.7 | 0.00 | 0.13 | 0.00 | 52 | 1009.2 |
| 20260503192718 | 8 | 307 | 3.2 | 12.9 | 0.00 | 0.13 | 0.00 | 51 | 1009.2 |
| 20260503192219 | 8 | 224 | 1.6 | 12.9 | 0.00 | 0.13 | 0.00 | 53 | 1009.2 |
| 20260503191719 | 8 | 259 | 4.8 | 17.7 | 0.00 | 0.13 | 0.00 | 53 | 1009.2 |
| 20260503191219 | 8 | 284 | 4.8 | 17.7 | 0.00 | 0.13 | 0.00 | 50 | 1009.1 |
| 20260503190717 | 8 | 290 | 3.2 | 9.7 | 0.00 | 0.13 | 0.00 | 52 | 1009.2 |
| 20260503190216 | 8 | 238 | 6.4 | 25.7 | 0.00 | 0.13 | 0.00 | 51 | 1009.3 |
| 20260503185717 | 8 | 214 | 8.0 | 25.7 | 0.00 | 0.13 | 0.00 | 51 | 1009.3 |
| 20260503185217 | 8 | 254 | 4.8 | 22.5 | 0.00 | 0.13 | 0.00 | 54 | 1009.4 |
| 20260503184947 | 7 | 275 | 4.8 | 14.5 | 0.00 | 0.13 | 0.00 | 52 | 1009.4 |
| 20260503184442 | 7 | 310 | 3.2 | 16.1 | 0.00 | 0.13 | 0.00 | 53 | 1009.5 |
| 20260503183713 | 7 | 340 | 3.2 | 16.1 | 0.00 | 0.13 | 0.00 | 52 | 1009.5 |
| 20260503183431 | 7 | 354 | 3.2 | 12.9 | 0.00 | 0.13 | 0.00 | 51 | 1009.5 |
| 20260503182714 | 7 | 300 | 4.8 | 17.7 | 0.00 | 0.13 | 0.00 | 50 | 1009.4 |
| 20260503182212 | 8 | 344 | 4.8 | 17.7 | 0.00 | 0.13 | 0.00 | 49 | 1009.5 |
| 20260503181712 | 8 | 1 | 4.8 | 17.7 | 0.00 | 0.13 | 0.00 | 51 | 1009.5 |
| 20260503181440 | 8 | 159 | 3.2 | 17.7 | 0.00 | 0.13 | 0.00 | 50 | 1009.5 |
| 20260503180713 | 8 | 40 | 1.6 | 12.9 | 0.00 | 0.13 | 0.00 | 53 | 1009.5 |
| 20260503180213 | 8 | 146 | 3.2 | 14.5 | 0.00 | 0.13 | 0.00 | 53 | 1009.5 |
| 20260503175714 | 7 | 37 | 3.2 | 14.5 | 0.00 | 0.13 | 0.00 | 52 | 1009.6 |
| 20260503175436 | 7 | 285 | 4.8 | 12.9 | 0.00 | 0.13 | 0.00 | 53 | 1009.5 |
| 20260503174713 | 7 | 300 | 4.8 | 14.5 | 0.00 | 0.13 | 0.00 | 53 | 1009.6 |
| 20260503174213 | 7 | 281 | 3.2 | 14.5 | 0.00 | 0.13 | 0.00 | 52 | 1009.7 |
| 20260503173711 | 8 | 249 | 1.6 | 11.3 | 0.00 | 0.13 | 0.00 | 51 | 1009.6 |
| 20260503173211 | 8 | 264 | 1.6 | 12.9 | 0.00 | 0.13 | 0.00 | 52 | 1009.7 |
| 20260503172712 | 8 | 214 | 3.2 | 16.1 | 0.00 | 0.13 | 0.00 | 50 | 1009.7 |
| 20260503172211 | 8 | 57 | 3.2 | 17.7 | 0.00 | 0.13 | 0.00 | 52 | 1009.7 |
| 20260503171711 | 7 | 278 | 3.2 | 17.7 | 0.00 | 0.13 | 0.00 | 53 | 1009.7 |
| 20260503171210 | 7 | 257 | 4.8 | 17.7 | 0.00 | 0.13 | 0.00 | 51 | 1009.7 |
| 20260503170710 | 7 | 306 | 4.8 | 19.3 | 0.00 | 0.13 | 0.00 | 51 | 1009.7 |
| 20260503170652 | 8 | 327 | 3.2 | 19.3 | 0.00 | 0.13 | 0.00 | 51 | 1009.7 |
| 20260503160122 | 8 | 323 | 4.8 | 20.9 | 0.00 | 0.13 | 0.00 | 50 | 1010.1 |
| 20260503150516 | 7 | 293 | 8.0 | 22.5 | 0.00 | 0.13 | 0.00 | 52 | 1010.3 |